Location: Boiro
(42.6475°N, 8.8834°W)
Time: 04:24:09
(UTC+01:00)

Vanguard 1 Rocket - Pass Details

Date: 13 December 2021
Orbit: 651 x 4224 km, 34.3° (Epoch: 21 January)

Event Time Altitude Azimuth Distance (km) Brightness Sun altitude
Rises 03:39:19 0° 255° (WSW) 3,854 - -56.9°
Reaches altitude 10° 03:41:31 10° 250° (WSW) 3,161 - -56.5°
Maximum altitude 03:49:20 56° 175° (S) 2,102 - -55.2°
Exits shadow 03:54:32 37° 120° (ESE) 3,120 10.0 -54.3°
Drops below altitude 10° 04:04:39 10° 103° (ESE) 5,920 11.9 -52.5°
Sets 04:10:31 0° 101° (E) 7,466 12.6 -51.5°
